Location: Newark
(34.7667°N, 118.4167°W)
Time: 02:41:08
(UTC+00:00)

Envisat - Visible Passes

Search period start: 22 March 2019 00:00
Search period end: 01 April 2019 00:00
Orbit: 764 x 766 km, 98.2° (Epoch: 21 March)

Date Brightness Start Highest point End Pass type
(mag) Time Alt. Az. Time Alt. Az. Time Alt. Az.
22 Mar 5.5 03:35:33 10° SW 03:39:27 22° W 03:43:21 10° NW visible
23 Mar 3.9 02:57:36 10° S 03:02:32 53° W 03:07:30 10° NNW visible
24 Mar 6.1 04:03:30 10° WSW 04:05:12 12° W 04:06:54 10° WNW visible
25 Mar 5.1 03:23:50 10° SSW 03:28:10 28° W 03:32:31 10° NW visible
26 Mar 3.4 02:46:16 10° S 02:51:18 69° WSW 02:56:23 10° NNW visible
27 Mar 5.9 03:50:56 10° SW 03:53:52 15° W 03:56:50 10° WNW visible
28 Mar 4.6 03:12:14 10° SSW 03:16:54 36° W 03:21:34 10° NNW visible
29 Mar 3.1 02:35:01 10° SSE 02:40:05 88° WSW 02:45:12 10° NNW visible
30 Mar 5.6 03:38:54 10° SW 03:42:35 20° W 03:46:16 10° NW visible
31 Mar 4.1 03:00:46 10° S 03:05:39 47° W 03:10:33 10° NNW visible
